Location: Newark
(39.4242°N, 80.8531°W)
Time: 02:18:21
(UTC+00:00)

Oscar 11 - Visible Passes

Search period start: 01 April 2020 00:00
Search period end: 11 April 2020 00:00
Orbit: 612 x 626 km, 97.6° (Epoch: 30 March)

Date Brightness Start Highest point End Pass type
(mag) Time Alt. Az. Time Alt. Az. Time Alt. Az.
04 Apr 10.0 00:22:00 10° SW 00:25:17 21° W 00:28:34 10° NW visible
05 Apr 10.3 00:40:19 10° WSW 00:42:30 14° W 00:44:41 10° WNW visible
10 Apr 10.0 00:28:43 10° SW 00:31:37 18° W 00:34:32 10° NW visible
